N2PUI Weather Reports


time (UTC)temp
C
wind
direction
speed
KPH
gust
KPH
rain 1hr
cm
rain 24hr
cm
rain mn
cm
humidity
%
barometer
mb
20260903141654 22 216 4.8 4.8 0.00 0.69 0.69 95 1016.1
20260903141149 21 281 4.8 4.8 0.00 0.69 0.69 95 1016.1
20260903140645 21 192 0.0 1.6 0.00 0.69 0.69 95 1015.9
20260903140140 21 186 3.2 3.2 0.00 0.69 0.69 95 1015.9
20260903135636 21 213 4.8 4.8 0.00 0.69 0.69 95 1015.9
20260903135130 21 179 1.6 1.6 0.00 0.69 0.69 95 1015.9
20260903134629 21 187 0.0 0.0 0.00 0.69 0.69 95 1015.6
20260903134125 21 187 1.6 1.6 0.00 0.69 0.69 95 1015.5
20260903133623 20 167 0.0 0.0 0.00 0.69 0.69 95 1015.8
20260903133119 20 195 0.0 1.6 0.00 0.69 0.69 95 1015.8
20260903132614 21 172 1.6 1.6 0.00 0.69 0.69 95 1016.0
20260903132113 20 176 0.0 0.0 0.00 0.69 0.69 95 1015.9
20260903131608 20 177 0.0 0.0 0.00 0.69 0.69 95 1015.9
20260903131107 20 177 0.0 1.6 0.00 0.69 0.69 95 1016.1
20260903130603 20 356 4.8 4.8 0.00 0.69 0.69 95 1016.0
20260903130056 20 153 0.0 0.0 0.00 0.69 0.69 95 1016.0
20260903125554 20 156 0.0 0.0 0.00 0.69 0.69 95 1016.2
20260903113437 18 167 0.0 0.0 0.00 0.69 0.69 95 1015.8
20260903112932 18 167 0.0 0.0 0.00 0.69 0.69 95 1015.8
20260903112428 18 177 0.0 0.0 0.00 0.69 0.69 95 1015.8
20260903111927 18 130 0.0 0.0 0.00 0.69 0.69 95 1015.7
20260903111426 18 158 0.0 0.0 0.00 0.69 0.69 95 1015.6
20260903110923 18 164 0.0 0.0 0.00 0.69 0.69 95 1015.6
20260903110419 18 200 1.6 3.2 0.00 0.69 0.69 95 1015.5
20260903105914 18 133 0.0 0.0 0.00 0.69 0.69 95 1015.6
20260903105409 18 151 0.0 0.0 0.00 0.69 0.69 95 1015.6
20260903104908 18 161 0.0 0.0 0.00 0.69 0.69 95 1015.5
20260903104402 18 126 0.0 0.0 0.00 0.69 0.69 95 1015.6
20260903103900 18 139 0.0 0.0 0.00 0.69 0.69 95 1015.8
20260903103355 18 163 0.0 0.0 0.00 0.69 0.69 95 1015.6
20260903102851 18 168 0.0 0.0 0.00 0.69 0.69 95 1015.5
20260903102350 18 135 0.0 0.0 0.00 0.69 0.69 95 1015.7
20260903101845 18 139 0.0 0.0 0.00 0.69 0.69 95 1015.7
20260903101340 18 125 0.0 0.0 0.00 0.69 0.69 95 1015.5
20260903100835 18 137 0.0 1.6 0.00 0.69 0.69 95 1015.7
20260903100329 18 141 0.0 0.0 0.00 0.69 0.69 95 1015.8
20260903095821 18 141 0.0 0.0 0.00 0.69 0.69 95 1015.8
20260903095315 18 138 0.0 0.0 0.00 0.69 0.69 95 1015.8
20260903094811 18 104 0.0 0.0 0.00 0.69 0.69 95 1015.6
20260903094305 18 99 0.0 0.0 0.00 0.69 0.69 95 1015.6
20260903093801 18 137 0.0 0.0 0.00 0.69 0.69 95 1015.8
20260903093255 18 117 1.6 1.6 0.00 0.69 0.69 95 1015.5
20260903041526 19 193 1.6 1.6 0.48 0.05 0.05 95 1017.6
20260903041021 19 193 1.6 1.6 0.48 0.05 0.05 95 1017.6
20260903040520 19 101 1.6 1.6 0.61 0.03 0.03 95 1017.3
20260903040017 19 255 3.2 3.2 1.37 3.48 3.48 95 1017.6
20260903035512 20 209 4.8 9.7 1.07 3.38 3.38 95 1018.1
20260903035008 19 313 6.4 8.0 0.48 3.25 3.25 95 1018.9
20260903034508 19 248 6.4 9.7 0.18 3.20 3.20 95 1017.9
20260903034002 19 61 0.0 3.2 0.13 3.17 3.17 95 1016.7
20260903033458 19 92 1.6 3.2 0.18 3.15 3.15 95 1016.1
20260903032953 19 110 3.2 3.2 0.18 3.15 3.15 95 1015.8
20260903032448 18 113 4.8 8.0 0.13 3.12 3.12 95 1016.0
20260903031943 18 156 0.0 0.0 0.13 3.12 3.12 95 1016.4
20260903031442 18 74 0.0 0.0 0.18 3.10 3.10 95 1016.8
20260903030932 18 148 0.0 0.0 0.30 3.10 3.10 95 1016.8
20260903030429 18 48 1.6 3.2 0.13 3.07 3.07 95 1017.0
20260903025924 18 335 6.4 8.0 0.30 3.05 3.05 95 1017.1
20260903025419 18 333 1.6 4.8 0.48 3.05 3.05 95 1017.3
20260903024915 18 155 0.0 0.0 0.18 3.00 3.00 95 1017.9
20260903024408 18 161 0.0 0.0 0.13 2.97 2.97 95 1018.0
20260903023903 18 96 0.0 3.2 0.30 2.97 2.97 95 1017.8
20260903023359 18 148 1.6 3.2 0.48 2.95 2.95 95 1018.1
20260903022854 18 171 0.0 0.0 0.61 2.92 2.92 95 1018.2
20260903022353 18 147 0.0 0.0 0.48 2.87 2.87 95 1017.6
20260903021852 18 132 1.6 1.6 0.48 2.82 2.82 95 1017.4
20260903021348 18 147 0.0 0.0 0.30 2.77 2.77 95 1017.4
20260903020847 18 173 0.0 0.0 0.43 2.74 2.74 95 1017.6
20260903020343 18 129 0.0 0.0 0.97 2.72 2.72 95 1018.1
20260903015837 18 113 8.0 9.7 2.29 2.67 2.67 95 1018.5
20260903015332 18 163 1.6 3.2 5.46 2.54 2.54 95 1019.2
20260903014828 18 183 1.6 3.2 7.19 2.29 2.29 95 1020.1
20260903014322 20 353 9.7 24.1 2.77 1.55 1.55 95 1021.3
20260903013817 20 300 6.4 8.0 0.00 1.09 1.09 95 1018.9
20260903013316 20 133 0.0 1.6 0.00 1.09 1.09 95 1017.9
20260903012815 20 122 4.8 4.8 0.00 1.09 1.09 95 1017.5
20260903012309 20 157 0.0 0.0 0.00 1.09 1.09 95 1017.7
20260903011803 20 115 3.2 3.2 0.00 1.09 1.09 95 1017.7
20260903011303 20 122 1.6 1.6 0.00 1.09 1.09 95 1017.6
20260903010758 21 133 4.8 4.8 0.00 1.09 1.09 95 1017.9
20260903010254 21 129 1.6 3.2 0.00 1.09 1.09 95 1018.0
20260903005752 21 139 6.4 8.0 0.00 1.09 1.09 95 1017.4
20260903005247 21 144 3.2 3.2 0.13 1.09 1.09 95 1016.8
20260903004743 21 142 6.4 9.7 0.00 1.07 1.07 95 1016.8
20260903004238 21 110 8.0 14.5 0.00 1.07 1.07 95 1016.9
20260903003734 21 114 6.4 8.0 0.00 1.07 1.07 95 1016.7
20260903003229 21 103 4.8 8.0 0.00 1.07 1.07 95 1017.1
20260903002723 21 148 6.4 8.0 0.00 1.07 1.07 95 1016.9
20260903002218 21 132 8.0 11.3 0.00 1.07 1.07 95 1016.8
20260903001713 21 120 3.2 3.2 0.00 1.07 1.07 95 1017.1
20260903001207 21 155 4.8 4.8 0.00 1.07 1.07 95 1017.0
20260903000703 21 114 4.8 4.8 0.00 1.07 1.07 95 1016.9
20260903000204 21 126 3.2 3.2 0.00 1.07 1.07 95 1017.0
20260902235700 21 166 3.2 3.2 0.00 1.07 1.07 95 1017.2
20260902235156 21 203 8.0 9.7 0.00 1.07 1.07 95 1017.0
20260902234650 21 120 8.0 11.3 0.00 1.07 1.07 95 1016.5
20260902234149 21 137 4.8 8.0 0.00 1.07 1.07 95 1016.5
20260902233644 21 125 9.7 11.3 0.00 1.07 1.07 95 1016.8
20260902233143 21 139 8.0 11.3 0.00 1.07 1.07 95 1016.9
20260902232642 21 167 8.0 11.3 0.00 1.07 1.07 95 1017.0
20260902232141 21 149 3.2 4.8 0.00 1.07 1.07 95 1017.1
20260902231636 21 131 3.2 4.8 0.00 1.07 1.07 95 1017.3
20260902231131 21 151 4.8 4.8 0.00 1.07 1.07 95 1017.1
20260902230626 21 130 1.6 3.2 0.00 1.07 1.07 95 1017.4
20260902230125 21 140 4.8 8.0 0.00 1.07 1.07 95 1017.0
20260902225620 21 162 4.8 8.0 0.00 1.07 1.07 95 1016.7
20260902225119 21 118 8.0 11.3 0.00 1.07 1.07 95 1016.7
20260902224618 21 114 4.8 4.8 0.00 1.07 1.07 95 1016.8
20260902224114 21 115 6.4 12.9 0.00 1.07 1.07 95 1016.9
20260902223611 21 109 17.7 20.9 0.00 1.07 1.07 95 1016.7
20260902223109 21 169 8.0 12.9 0.00 1.07 1.07 95 1016.9
20260902222608 21 128 9.7 14.5 0.00 1.07 1.07 95 1016.8
20260902222107 21 121 6.4 9.7 0.00 1.07 1.07 95 1016.7
20260902221601 21 121 8.0 12.9 0.00 1.07 1.07 95 1017.0
20260902221056 21 131 8.0 11.3 0.00 1.07 1.07 95 1017.0
20260902220552 21 64 9.7 12.9 0.00 1.07 1.07 95 1017.4
20260902220046 21 128 8.0 9.7 0.00 1.07 1.07 95 1017.2
20260902215543 21 108 4.8 9.7 0.00 1.07 1.07 95 1017.5
20260902215037 21 126 6.4 9.7 0.00 1.07 1.07 95 1017.6
20260902214532 21 115 6.4 9.7 0.00 1.07 1.07 95 1017.4
20260902214031 21 116 9.7 11.3 0.00 1.07 1.07 95 1017.5
20260902213527 21 136 6.4 8.0 0.00 1.07 1.07 95 1017.6
20260902213026 21 114 6.4 9.7 0.00 1.07 1.07 95 1017.7
20260902212522 21 115 6.4 9.7 0.00 1.07 1.07 95 1017.6
20260902212018 21 109 6.4 8.0 0.00 1.07 1.07 95 1017.4
20260902211514 21 129 4.8 4.8 0.00 1.07 1.07 95 1017.6
20260902211008 21 181 3.2 3.2 0.00 1.07 1.07 95 1017.7
20260902210503 21 100 6.4 8.0 0.00 1.07 1.07 95 1017.7
20260902210001 21 110 4.8 4.8 0.00 1.07 1.07 95 1017.6
20260902205456 21 167 1.6 1.6 0.00 1.07 1.07 95 1017.6
20260902204952 21 121 4.8 4.8 0.00 1.07 1.07 95 1017.5
20260902204451 21 115 3.2 4.8 0.00 1.07 1.07 95 1017.7
20260902203947 21 118 4.8 4.8 0.00 1.07 1.07 95 1017.5
20260902203443 21 119 9.7 11.3 0.00 1.07 1.07 95 1017.4
20260902202941 21 142 9.7 12.9 0.00 1.07 1.07 95 1017.5
20260902202437 21 144 4.8 4.8 0.00 1.07 1.07 95 1017.3
20260902201934 21 121 11.3 12.9 0.00 1.07 1.07 95 1017.4
20260902201429 21 122 11.3 12.9 0.00 1.07 1.07 95 1017.8
20260902200929 21 134 4.8 8.0 0.00 1.07 1.07 95 1017.7
20260902200424 21 113 3.2 4.8 0.00 1.07 1.07 95 1017.8
20260902195919 21 124 4.8 8.0 0.00 1.07 1.07 95 1017.8
20260902195414 21 169 11.3 12.9 0.00 1.07 1.07 95 1017.8
20260902194909 21 101 8.0 11.3 0.00 1.07 1.07 95 1017.7
20260902194408 21 131 4.8 4.8 0.00 1.07 1.07 95 1018.1
20260902193903 21 132 4.8 4.8 0.00 1.07 1.07 95 1018.3
20260902193359 21 101 4.8 8.0 0.00 1.07 1.07 95 1018.2
20260902192858 21 127 6.4 9.7 0.00 1.07 1.07 95 1018.4
20260902192357 21 124 4.8 4.8 0.00 1.07 1.07 95 1018.2
20260902191851 21 167 6.4 8.0 0.00 1.07 1.07 95 1018.2
20260902191346 21 114 6.4 11.3 0.00 1.07 1.07 95 1018.4
20260902190836 21 130 4.8 4.8 0.00 1.07 1.07 95 1018.5
20260902190335 21 130 6.4 8.0 0.00 1.07 1.07 95 1018.4
20260902185832 21 111 8.0 9.7 0.00 1.07 1.07 95 1018.5
20260902185327 21 151 3.2 3.2 0.00 1.07 1.07 95 1018.3
20260902184823 21 120 9.7 12.9 0.00 1.07 1.07 95 1018.4
20260902184318 21 167 4.8 8.0 0.00 1.07 1.07 95 1018.6
20260902183813 21 92 9.7 12.9 0.00 1.07 1.07 95 1018.4
20260902183309 21 123 9.7 11.3 0.00 1.07 1.07 95 1018.4
20260902182805 21 152 8.0 12.9 0.00 1.07 1.07 95 1018.3
20260902182305 21 103 8.0 12.9 0.00 1.07 1.07 95 1018.7
20260902181757 21 186 6.4 8.0 0.00 1.07 1.07 95 1018.4
20260902181252 21 114 4.8 9.7 0.00 1.07 1.07 95 1018.4
20260902180747 21 109 12.9 14.5 0.00 1.07 1.07 95 1018.7
20260902180242 21 165 6.4 8.0 0.00 1.07 1.07 95 1018.9
20260902175737 21 109 3.2 4.8 0.00 1.07 1.07 95 1018.9
20260902175233 21 114 8.0 11.3 0.00 1.07 1.07 95 1018.9
20260902174729 21 101 6.4 9.7 0.00 1.07 1.07 95 1019.0
20260902174224 21 137 11.3 16.1 0.00 1.07 1.07 95 1019.1
20260902173719 20 116 3.2 4.8 0.00 1.07 1.07 95 1019.1
20260902173214 20 91 4.8 8.0 0.00 1.07 1.07 95 1019.2
20260902172709 20 119 8.0 8.0 0.00 1.07 1.07 95 1019.3
20260902172208 20 125 11.3 16.1 0.00 1.07 1.07 95 1019.4
20260902171703 20 165 14.5 20.9 0.00 1.07 1.07 95 1019.4
20260902171159 20 73 6.4 9.7 0.00 1.07 1.07 95 1019.7
20260902170655 20 125 8.0 14.5 0.00 1.07 1.07 95 1019.4
20260902170149 20 97 8.0 12.9 0.00 1.07 1.07 95 1019.6
20260902165644 20 135 8.0 11.3 0.00 1.07 1.07 95 1019.4
20260902165138 20 139 4.8 4.8 0.00 1.07 1.07 95 1019.5
20260902164634 20 125 9.7 12.9 0.00 1.07 1.07 95 1019.3
20260902164133 20 166 6.4 8.0 0.00 1.07 1.07 95 1019.5
20260902163628 20 106 8.0 9.7 0.00 1.07 1.07 95 1019.8
20260902163127 20 121 6.4 8.0 0.00 1.07 1.07 95 1019.7
20260902162626 20 116 11.3 14.5 0.00 1.07 1.07 95 1020.1
20260902162121 20 122 6.4 8.0 0.00 1.07 1.07 95 1020.2
20260902161616 20 111 3.2 3.2 0.00 1.07 1.07 95 1020.1
20260902161112 20 129 1.6 3.2 0.00 1.07 1.07 95 1019.7
20260902160609 20 120 0.0 1.6 0.00 1.07 1.07 95 1019.7
20260902160103 20 122 0.0 0.0 0.00 1.07 1.07 95 1019.2
20260902155602 20 74 1.6 3.2 0.00 1.07 1.07 95 1019.5
20260902155100 21 119 8.0 9.7 0.18 1.07 1.07 95 1019.3
20260902154556 20 109 14.5 17.7 0.30 1.07 1.07 95 1019.1
20260902154050 20 88 3.2 8.0 0.61 1.04 1.04 95 1019.3
20260902153549 21 91 0.0 1.6 0.48 0.99 0.99 95 1019.5
20260902153045 21 44 1.6 3.2 0.18 0.94 0.94 95 1019.7
20260902152541 21 96 1.6 3.2 0.30 0.91 0.91 95 1019.8
20260902152036 21 123 3.2 3.2 0.48 0.89 0.89 95 1019.6
20260902151532 21 137 0.0 0.0 0.61 0.86 0.86 95 1019.6
20260902151031 21 146 0.0 0.0 0.89 0.81 0.81 95 1019.6
20260902150527 21 302 3.2 3.2 0.89 0.76 0.76 95 1019.4
20260902150022 21 157 0.0 0.0 0.30 0.64 0.64 95 1019.0
20260902145517 21 159 0.0 0.0 0.30 0.61 0.61 95 1019.1
20260902145017 21 107 1.6 1.6 0.61 0.58 0.58 95 1018.8
20260902144513 21 88 0.0 1.6 1.68 0.56 0.56 95 1018.4
20260902144008 21 120 9.7 12.9 1.68 0.48 0.48 95 1018.6
20260902143503 21 174 4.8 9.7 0.61 0.28 0.28 95 1019.5
20260902142958 21 155 4.8 4.8 0.30 0.20 0.20 95 1018.9
20260902142454 21 169 1.6 1.6 0.18 0.18 0.18 95 1018.8
20260902141949 21 115 1.6 3.2 0.30 0.15 0.15 95 1018.8